Location: Cucq
(50.4773°N, 1.6202°E)
Time: 22:44:32
(UTC+00:00)

Lacrosse 4 Rocket - Pass Details

Date: 07 August 2020
Orbit: 544 x 615 km, 68.0° (Epoch: 22 September)

Event Time Altitude Azimuth Distance (km) Brightness Sun altitude
Exits shadow 01:49:16 15° 276° (W) 1,589 3.4 -19.0°
Maximum altitude 01:51:41 24° 320° (NW) 1,218 3.3 -18.8°
Drops below altitude 10° 01:55:06 10° 15° (NNE) 1,869 5.2 -18.5°
Sets 01:57:39 0° 30° (NNE) 2,757 6.6 -18.3°
